This is the latest recevied weather packets stored in our database for station/object s59zo-6. If no packets are shown the sender has not sent any weather packets the latest 10 day(s).
| Time | Temp. | Humidity | Pressure | Rain* | Wind** | Luminosity | Snow |
|---|---|---|---|---|---|---|---|
| 1787402704 | 18.89° C | 77% | 1020.3 hPa | 0 mm | - | - | - |
| 1787402405 | 18.89° C | 76% | 1020.3 hPa | 0 mm | - | - | - |
| 1787402104 | 18.89° C | 77% | 1020.5 hPa | 0 mm | - | - | - |
| 1787401804 | 18.89° C | 77% | 1020.3 hPa | 0 mm | - | - | - |
| 1787401505 | 18.89° C | 78% | 1020 hPa | 0 mm | - | - | - |
| 1787401204 | 18.89° C | 80% | 1020.1 hPa | 0 mm | - | - | - |
| 1787400904 | 18.33° C | 80% | 1020.3 hPa | 0 mm | - | - | - |
| 1787400605 | 18.33° C | 80% | 1020.2 hPa | 0 mm | - | - | - |
| 1787400304 | 18.33° C | 80% | 1020.4 hPa | 0 mm | - | - | - |
| 1787400004 | 18.33° C | 80% | 1020.4 hPa | 0 mm | - | - | - |
| 1787399704 | 18.33° C | 80% | 1020.5 hPa | 0 mm | - | - | - |
| 1787399405 | 18.89° C | 80% | 1020.3 hPa | 0 mm | - | - | - |
| 1787399104 | 18.89° C | 82% | 1020.3 hPa | 0 mm | - | - | - |
| 1787398805 | 18.89° C | 83% | 1020.2 hPa | 0 mm | - | - | - |
| 1787398504 | 18.89° C | 83% | 1020.3 hPa | 0.25 mm | - | - | - |
| 1787398204 | 18.33° C | 84% | 1020.1 hPa | 0.25 mm | - | - | - |
| 1787397904 | 18.33° C | 84% | 1020.3 hPa | 0.51 mm | - | - | - |
| 1787397605 | 18.33° C | 84% | 1020.3 hPa | 1.02 mm | - | - | - |
| 1787397304 | 18.33° C | 84% | 1020.3 hPa | 1.02 mm | - | - | - |
| 1787397004 | 18.33° C | 85% | 1020.3 hPa | 1.27 mm | - | - | - |
| 1787396704 | 18.33° C | 86% | 1020 hPa | 1.52 mm | - | - | - |
| 1787396404 | 18.33° C | 87% | 1020.2 hPa | 1.52 mm | - | - | - |
| 1787396105 | 18.33° C | 87% | 1020.1 hPa | 2.03 mm | - | - | - |
| 1787395805 | 18.33° C | 88% | 1019.9 hPa | 2.79 mm | - | - | - |
| 1787395504 | 18.33° C | 88% | 1020 hPa | 3.05 mm | - | - | - |
* Rain latest hour (hover to see other rain measurements)
** Current wind speed in m/s (hover to see current wind gust speed)